Flag for U.S.A. Weather past 2 weeks in Springfield, Illinois, U.S.A.

Now
81 °F

Scattered clouds.


Feels Like: 82 °F
Forecast: 66 / 81 °F
Wind: 13 mph from Northwest

Location: Capital Airport

Current Time: May 27, 2015 at 5:20:07 PM

Latest Report: May 27, 2015 at 3:52 PM


Visibility: 10 mi

Pressure: 30.06 "Hg

Humidity: 49%

Dew point: 60 °F

Location of SpringfieldLocation

Historic Weather in Springfield — Graph

°F

Springfield temperature yesterday

Maximum temperature yesterday: 78 °F (at 4:52 PM)
Minimum temperature yesterday: 69 °F (at 9:52 AM)
Average temperature yesterday: 73 °F

Past Weeks' High & Low Weather Summary

 TemperatureHumidityPressure
High87 °F (May 24, 3:52 PM)96% (May 25, 1:52 AM)30.45 "Hg (May 25, 1:52 AM)
Low43 °F (May 20, 11:52 PM)22% (May 22, 2:52 PM)29.81 "Hg (May 26, 8:52 AM)
Average66 °F66%30.09 "Hg
* Reported May 12 3:52 PM — May 27 3:52 PM, Springfield, Weather by CustomWeather, © 2015

Note: Actual official high and low records may vary slightly from our data, if they occured in-between our weather recording intervals... More about our weather records

Advertising

Springfield weather history for previous 24 hours

 ConditionsComfort  
Time TempWeatherWind HumidityBarometerVisibility
3:52 PM
Wed, May 27
81 °FScattered clouds.13 mph49%30.06 "Hg10 mi
2:52 PM80 °FScattered clouds.15 mph45%30.04 "Hg10 mi
1:52 PM78 °FPartly sunny.16 mph52%30.03 "Hg10 mi
12:52 PM80 °FScattered clouds.17 mph49%30.03 "Hg10 mi
11:52 AM77 °FBroken clouds.14 mph60%30.02 "Hg10 mi
10:52 AM74 °FBroken clouds.14 mph71%30.02 "Hg10 mi
9:52 AM72 °FOvercast.9 mph76%30.02 "Hg10 mi
8:52 AM70 °FOvercast.15 mph81%30.03 "Hg10 mi
7:52 AM70 °FPartly sunny.9 mph81%29.98 "Hg10 mi
6:52 AM68 °FBroken clouds.12 mph84%30.00 "Hg10 mi
5:52 AM67 °FClear.5 mph85%29.96 "Hg10 mi
4:52 AM68 °FPassing clouds.9 mph84%29.96 "Hg10 mi
3:52 AM68 °FLight rain. Passing clouds.12 mph84%29.95 "Hg10 mi
2:52 AM68 °FLight rain. Mostly cloudy.14 mph84%29.93 "Hg10 mi
1:52 AM69 °FPartly cloudy.13 mph79%29.91 "Hg10 mi
12:52 AM70 °FPartly cloudy.13 mph76%29.91 "Hg10 mi
11:52 PM
Tue, May 26
71 °FPartly cloudy.14 mph71%29.93 "Hg10 mi
10:52 PM72 °FPassing clouds.15 mph66%29.92 "Hg10 mi
9:52 PM73 °FPassing clouds.14 mph66%29.90 "Hg10 mi
8:52 PM73 °FScattered clouds.10 mph64%29.88 "Hg10 mi
7:52 PM75 °FSunny.9 mph62%29.87 "Hg10 mi
6:52 PM76 °FScattered clouds.10 mph60%29.86 "Hg10 mi
5:52 PM77 °FBroken clouds.13 mph60%29.85 "Hg10 mi
Weather by CustomWeather, © 2015

See weather overviewHow to use our weather pages